This is the latest recevied weather packets stored in our database for station/object OE-11152. If no packets are shown the sender has not sent any weather packets the latest 10 day(s).
| Time | Temp. | Humidity | Pressure | Rain* | Wind** | Luminosity | Snow |
|---|---|---|---|---|---|---|---|
| 1787856091 | 24.44° C | 63% | 1011.8 hPa | 0 mm | - | 0 W/m² | - |
| 1787855717 | 23.89° C | 64% | 1011.9 hPa | 0 mm | - | 0 W/m² | - |
| 1787855118 | 24.44° C | 63% | 1011.9 hPa | 0 mm | - | 0 W/m² | - |
| 1787854291 | 24.44° C | 60% | 1011.7 hPa | 0 mm | - | 0 W/m² | - |
| 1787853918 | 24.44° C | 62% | 1011.8 hPa | 0 mm | - | 7 W/m² | - |
| 1787852730 | 25° C | 63% | 1011.5 hPa | 0 mm | - | 20 W/m² | - |
| 1787852117 | 25° C | 60% | 1011.4 hPa | 0 mm | - | 34 W/m² | - |
| 1787851518 | 25° C | 63% | 1011.4 hPa | 0 mm | - | 47 W/m² | - |
| 1787850691 | 25.56° C | 61% | 1011.6 hPa | 0 mm | - | 61 W/m² | - |
| 1787850318 | 25.56° C | 60% | 1011.4 hPa | 0 mm | - | 74 W/m² | - |
| 1787849718 | 26.11° C | 57% | 1011.3 hPa | 0 mm | - | 67 W/m² | - |
| 1787848891 | 26.11° C | 58% | 1011.4 hPa | 0 mm | - | 81 W/m² | - |
| 1787848518 | 26.11° C | 60% | 1011.5 hPa | 0 mm | - | 108 W/m² | - |
| 1787847918 | 26.11° C | 59% | 1011.7 hPa | 0 mm | - | 135 W/m² | - |
| 1787847091 | 26.11° C | 60% | 1011.8 hPa | 0 mm | - | 115 W/m² | - |
| 1787846718 | 26.11° C | 60% | 1011.8 hPa | 0 mm | - | 121 W/m² | - |
| 1787846118 | 26.11° C | 58% | 1011.8 hPa | 0 mm | - | 155 W/m² | - |
| 1787845290 | 26.11° C | 61% | 1011.7 hPa | 0 mm | - | 223 W/m² | - |
| 1787844918 | 26.67° C | 61% | 1011.7 hPa | 0 mm | - | 290 W/m² | - |
| 1787844318 | 26.67° C | 60% | 1011.7 hPa | 0 mm | - | 351 W/m² | - |
| 1787843491 | 26.11° C | 64% | 1011.7 hPa | 0 mm | - | 364 W/m² | - |
| 1787843118 | 26.11° C | 63% | 1011.8 hPa | 0 mm | - | 263 W/m² | - |
| 1787842518 | 26.11° C | 61% | 1011.9 hPa | 0 mm | - | 283 W/m² | - |
| 1787841690 | 26.67° C | 59% | 1011.9 hPa | 0 mm | - | 425 W/m² | - |
| 1787841318 | 26.67° C | 60% | 1011.9 hPa | 0 mm | - | 492 W/m² | - |
* Rain latest hour (hover to see other rain measurements)
** Current wind speed in m/s (hover to see current wind gust speed)